Weather History for Houlton, ME

Change the Weather History Date:

Wednesday, June 6, 2012

  Actual Average Record
Temperature  
Mean Temperature 53 °F 57 °F  
Max Temperature 61 °F 70 °F 87 °F (1976)
Min Temperature 45 °F 45 °F 28 °F (1971)
Degree Days  
Heating Degree Days 12 8  
Month to date heating degree days 76 52  
Since 1 June heating degree days 76 52  
Since 1 July heating degree days 7964 9059  
Cooling Degree Days 0 1  
Month to date cooling degree days 0 2  
Year to date cooling degree days 4 6  
Since 1 June cooling degree days 0 2  
Growing Degree Days 3 (Base 50)    
Moisture  
Dew Point 45 °F    
Average Humidity 71    
Maximum Humidity 86    
Minimum Humidity 55    
Precipitation  
Precipitation 0.04 in 0.11 in 1.08 in (1975)
Month to date precipitation 0.07 0.64  
Year to date precipitation 12.02 15.27  
Sea Level Pressure  
Sea Level Pressure 29.95 in    
Wind  
Wind Speed 6 mph (NNE)    
Max Wind Speed 15 mph    
Max Gust Speed 20 mph    
Visibility 10 miles    
Events Rain    
T = Trace of Precipitation, MM = Missing Value Source: NWS Daily Summary

Daily Weather History Graph

Daily Weather History Graph

Search for Another Location

Airport:

Trip Planner

Search our weather history database for the weather conditions in past years. The results will help you decide how hot, cold, wet, or windy it might be!

Date:

Astronomy

Jun. 06, 2012 Rise Set
Actual Time 4:40 AM EDT 8:19 PM EDT
Civil Twilight 4:02 AM EDT 8:57 PM EDT
Nautical Twilight 3:11 AM EDT 9:48 PM EDT
Astronomical Twilight 2:03 AM EDT 10:57 PM EDT
Moon 10:22 PM EDT (6/6) 7:01 AM EDT (6/6)
Length of Visible Light 16h 54m
Length of Day
15h 38m
Waning Gibbous, 93% of the Moon is Illuminated
Jun 6
Waning Gibbous
Jun 11
Last Quarter
Jun 19
New
Jun 26
First Quarter
Jul 3
Full

Hourly Weather History & Observations

Time (EDT) Temp. Dew Point Humidity Pressure Visibility Wind Dir Wind Speed Gust Speed Precip Events Conditions
12:53 AM 48.0 °F 42.1 °F 80% 29.94 in 10.0 mi NNE 3.5 mph - N/A   Overcast
1:53 AM 48.0 °F 42.1 °F 80% 29.94 in 10.0 mi Calm Calm - N/A   Overcast
2:53 AM 48.0 °F 42.1 °F 80% 29.94 in 10.0 mi North 3.5 mph - N/A   Overcast
3:53 AM 48.0 °F 42.1 °F 80% 29.94 in 10.0 mi North 4.6 mph - N/A   Overcast
4:53 AM 48.0 °F 42.1 °F 80% 29.94 in 10.0 mi North 5.8 mph - N/A   Overcast
5:53 AM 48.0 °F 43.0 °F 83% 29.95 in 10.0 mi North 8.1 mph - N/A   Overcast
6:53 AM 48.9 °F 44.1 °F 83% 29.96 in 10.0 mi North 8.1 mph - N/A   Overcast
7:23 AM 48.2 °F 44.6 °F 87% 29.95 in 9.0 mi North 8.1 mph - N/A   Overcast
7:53 AM 50.0 °F 44.1 °F 80% 29.96 in 10.0 mi North 8.1 mph - N/A   Overcast
8:53 AM 52.0 °F 44.1 °F 74% 29.96 in 10.0 mi NNW 9.2 mph - N/A   Overcast
9:36 AM 51.8 °F 44.6 °F 76% 29.95 in 10.0 mi North 9.2 mph - N/A   Overcast
9:53 AM 54.0 °F 45.0 °F 72% 29.95 in 10.0 mi North 10.4 mph - N/A   Overcast
10:36 AM 55.4 °F 44.6 °F 67% 29.94 in 10.0 mi North 11.5 mph - N/A   Overcast
10:46 AM 55.4 °F 44.6 °F 67% 29.94 in 10.0 mi North 8.1 mph - N/A   Overcast
10:53 AM 55.9 °F 45.0 °F 67% 29.95 in 10.0 mi Variable 5.8 mph 16.1 mph N/A   Overcast
11:00 AM 55.4 °F 44.6 °F 67% 29.94 in 10.0 mi North 9.2 mph - N/A   Overcast
11:10 AM 55.4 °F 44.6 °F 67% 29.94 in 10.0 mi North 11.5 mph - N/A   Overcast
11:53 AM 55.9 °F 45.0 °F 67% 29.94 in 10.0 mi North 11.5 mph - N/A   Overcast
12:53 PM 57.0 °F 44.1 °F 62% 29.94 in 10.0 mi NNE 11.5 mph - N/A   Overcast
1:53 PM 57.0 °F 48.0 °F 72% 29.94 in 10.0 mi NE 6.9 mph - 0.00 in Rain Light Rain
2:53 PM 60.1 °F 48.9 °F 67% 29.93 in 10.0 mi NE 6.9 mph - 0.01 in   Partly Cloudy
3:53 PM 60.1 °F 45.0 °F 57% 29.92 in 10.0 mi NE 10.4 mph - N/A   Mostly Cloudy
4:53 PM 57.2 °F 48.2 °F 72% 29.91 in 10.0 mi East 5.8 mph - N/A   Mostly Cloudy
5:53 PM 57.2 °F 46.4 °F 67% 29.92 in 10.0 mi Variable 3.5 mph - N/A   Overcast
6:53 PM 53.1 °F 48.9 °F 86% 29.96 in 3.0 mi Calm Calm - 0.02 in Rain Rain
7:00 PM 53.6 °F 48.2 °F 82% 29.94 in 2.5 mi Calm Calm - 0.01 in Rain Light Rain
7:08 PM 53.6 °F 48.2 °F 82% 29.95 in 8.0 mi Variable 4.6 mph - 0.01 in Rain Light Rain
7:20 PM 53.6 °F 48.2 °F 82% 29.95 in 10.0 mi Calm Calm - 0.01 in   Overcast
7:53 PM 52.0 °F 46.9 °F 83% 29.97 in 10.0 mi SE 3.5 mph - 0.01 in   Scattered Clouds
8:53 PM 50.0 °F 45.0 °F 83% 29.99 in 10.0 mi SE 3.5 mph - N/A   Overcast
9:53 PM 48.0 °F 44.1 °F 86% 30.00 in 10.0 mi SE 4.6 mph - N/A   Mostly Cloudy
10:53 PM 46.9 °F 43.0 °F 86% 30.01 in 10.0 mi SSE 3.5 mph - N/A   Mostly Cloudy
11:53 PM 46.0 °F 43.0 °F 89% 30.01 in 10.0 mi Calm Calm - N/A   Overcast